Time,TemperatureF,DewpointF,PressureIn,WindDirection,WindDirectionDegrees,WindSpeedMPH,WindSpeedGustMPH,Humidity,HourlyPrecipIn,Conditions,Clouds,dailyrainin,SoftwareType,DateUTC
2013-03-04 00:05:00,18.1,16.4,29.92,SE,135,0.0,-999.0,93,-99.99,,,0.00,Acu-Link.com,2013-03-04 05:05:00,
2013-03-04 00:20:00,17.4,15.7,29.92,SE,135,0.0,-999.0,93,-99.99,,,0.00,Acu-Link.com,2013-03-04 05:20:00,
2013-03-04 00:36:00,17.1,15.7,29.91,SE,135,0.0,-999.0,94,-99.99,,,0.00,Acu-Link.com,2013-03-04 05:36:00,
2013-03-04 00:51:00,15.6,15.1,29.92,SE,135,0.0,-999.0,98,-99.99,,,0.00,Acu-Link.com,2013-03-04 05:51:00,
2013-03-04 01:06:00,14.7,14.5,29.93,SE,135,0.0,-999.0,99,-99.99,,,0.00,Acu-Link.com,2013-03-04 06:06:00,
2013-03-04 01:21:00,14.4,14.2,29.93,SE,135,0.0,-999.0,99,-99.99,,,0.00,Acu-Link.com,2013-03-04 06:21:00,
2013-03-04 01:37:00,13.3,12.8,29.94,SE,135,0.0,-999.0,98,-99.99,,,0.00,Acu-Link.com,2013-03-04 06:37:00,
2013-03-04 01:52:00,11.8,11.1,29.93,SE,135,0.0,-999.0,97,-99.99,,,0.00,Acu-Link.com,2013-03-04 06:52:00,
2013-03-04 02:07:00,11.8,11.6,29.95,SE,135,0.0,-999.0,99,-99.99,,,0.00,Acu-Link.com,2013-03-04 07:07:00,
2013-03-04 02:22:00,10.8,10.6,29.94,SE,135,0.0,-999.0,99,-99.99,,,0.00,Acu-Link.com,2013-03-04 07:22:00,
2013-03-04 02:37:00,11.1,10.9,29.95,SE,135,0.0,-999.0,99,-99.99,,,0.00,Acu-Link.com,2013-03-04 07:37:00,
2013-03-04 02:53:00,13.5,13.3,29.94,SE,135,0.0,-999.0,99,-99.99,,,0.00,Acu-Link.com,2013-03-04 07:53:00,
2013-03-04 03:08:00,16.2,16.0,29.94,SE,135,0.0,-999.0,99,-99.99,,,0.00,Acu-Link.com,2013-03-04 08:08:00,
2013-03-04 03:23:00,16.2,16.0,29.95,SE,135,0.0,-999.0,99,-99.99,,,0.00,Acu-Link.com,2013-03-04 08:23:00,
2013-03-04 03:38:00,15.4,15.2,29.94,SE,135,0.0,-999.0,99,-99.99,,,0.00,Acu-Link.com,2013-03-04 08:38:00,
2013-03-04 03:53:00,13.8,13.6,29.94,SE,135,0.0,-999.0,99,-99.99,,,0.00,Acu-Link.com,2013-03-04 08:53:00,
2013-03-04 04:20:00,12.9,12.7,29.93,SE,135,0.0,-999.0,99,-99.99,,,0.00,Acu-Link.com,2013-03-04 09:20:00,
2013-03-04 04:35:00,9.3,8.6,29.93,SE,135,0.0,-999.0,97,-99.99,,,0.00,Acu-Link.com,2013-03-04 09:35:00,
2013-03-04 04:50:00,8.2,7.5,29.95,SE,135,0.0,-999.0,97,-99.99,,,0.00,Acu-Link.com,2013-03-04 09:50:00,
2013-03-04 05:05:00,7.0,6.1,29.95,SE,135,0.0,-999.0,96,-99.99,,,0.00,Acu-Link.com,2013-03-04 10:05:00,
2013-03-04 05:20:00,6.4,5.5,29.95,SE,135,0.0,-999.0,96,-99.99,,,0.00,Acu-Link.com,2013-03-04 10:20:00,
2013-03-04 05:36:00,6.3,5.4,29.96,SE,135,0.0,-999.0,96,-99.99,,,0.00,Acu-Link.com,2013-03-04 10:36:00,
2013-03-04 05:51:00,5.7,4.8,29.96,SE,135,0.0,-999.0,96,-99.99,,,0.00,Acu-Link.com,2013-03-04 10:51:00,
2013-03-04 06:06:00,5.5,4.6,29.98,SE,135,0.0,-999.0,96,-99.99,,,0.00,Acu-Link.com,2013-03-04 11:06:00,
2013-03-04 06:21:00,8.8,8.6,29.98,SE,135,0.0,-999.0,99,-99.99,,,0.00,Acu-Link.com,2013-03-04 11:21:00,
2013-03-04 06:36:00,13.3,13.1,29.98,SE,135,0.0,-999.0,99,-99.99,,,0.00,Acu-Link.com,2013-03-04 11:36:00,
2013-03-04 06:52:00,14.2,14.0,29.98,SE,135,1.7,-999.0,99,-99.99,,,0.00,Acu-Link.com,2013-03-04 11:52:00,
2013-03-04 07:07:00,12.2,12.0,29.99,SE,135,0.0,-999.0,99,-99.99,,,0.00,Acu-Link.com,2013-03-04 12:07:00,
2013-03-04 07:22:00,12.2,12.0,30.00,SE,135,1.7,-999.0,99,-99.99,,,0.00,Acu-Link.com,2013-03-04 12:22:00,
2013-03-04 07:37:00,13.6,13.4,30.00,SE,135,0.0,-999.0,99,-99.99,,,0.00,Acu-Link.com,2013-03-04 12:37:00,
2013-03-04 08:08:00,16.3,16.1,30.00,SE,135,2.2,-999.0,99,-99.99,,,0.00,Acu-Link.com,2013-03-04 13:08:00,
2013-03-04 08:23:00,17.1,16.9,30.00,South,180,3.2,-999.0,99,-99.99,,,0.00,Acu-Link.com,2013-03-04 13:23:00,
2013-03-04 08:38:00,18.0,17.8,30.00,South,180,1.7,-999.0,99,-99.99,,,0.00,Acu-Link.com,2013-03-04 13:38:00,
2013-03-04 08:53:00,18.9,18.7,30.00,SSW,202,1.7,-999.0,99,-99.99,,,0.00,Acu-Link.com,2013-03-04 13:53:00,
2013-03-04 09:09:00,19.9,19.2,30.00,SW,225,2.2,-999.0,97,-99.99,,,0.00,Acu-Link.com,2013-03-04 14:09:00,
2013-03-04 09:24:00,21.0,20.0,30.00,SSE,157,5.3,-999.0,96,-99.99,,,0.00,Acu-Link.com,2013-03-04 14:24:00,
2013-03-04 09:39:00,22.1,20.1,30.00,South,180,1.7,-999.0,92,-99.99,,,0.00,Acu-Link.com,2013-03-04 14:39:00,
2013-03-04 09:54:00,23.4,20.4,30.02,South,180,4.2,-999.0,88,-99.99,,,0.00,Acu-Link.com,2013-03-04 14:54:00,
2013-03-04 10:09:00,25.0,20.6,30.01,SSE,157,1.1,-999.0,83,-99.99,,,0.00,Acu-Link.com,2013-03-04 15:09:00,
2013-03-04 10:25:00,25.7,19.8,30.01,South,180,2.7,-999.0,78,-99.99,,,0.00,Acu-Link.com,2013-03-04 15:25:00,
2013-03-04 10:40:00,26.4,19.9,30.01,SSE,157,4.7,-999.0,76,-99.99,,,0.00,Acu-Link.com,2013-03-04 15:40:00,
2013-03-04 10:55:00,25.7,19.2,30.01,SSE,157,5.3,-999.0,76,-99.99,,,0.00,Acu-Link.com,2013-03-04 15:55:00,
2013-03-04 11:10:00,29.8,20.9,30.01,ESE,112,1.7,-999.0,69,-99.99,,,0.00,Acu-Link.com,2013-03-04 16:10:00,
2013-03-04 11:25:00,32.7,22.3,30.01,SSW,202,6.3,-999.0,65,-99.99,,,0.00,Acu-Link.com,2013-03-04 16:25:00,
2013-03-04 11:41:00,33.1,20.4,30.01,SSW,202,7.3,-999.0,59,-99.99,,,0.00,Acu-Link.com,2013-03-04 16:41:00,
2013-03-04 11:56:00,36.3,21.3,30.00,SSW,202,3.2,-999.0,54,-99.99,,,0.00,Acu-Link.com,2013-03-04 16:56:00,
2013-03-04 12:11:00,32.5,19.4,30.00,South,180,2.7,-999.0,58,-99.99,,,0.01,Acu-Link.com,2013-03-04 17:11:00,
2013-03-04 12:26:00,35.8,20.4,30.00,ESE,112,1.7,-999.0,53,-99.99,,,0.01,Acu-Link.com,2013-03-04 17:26:00,
2013-03-04 12:42:00,37.0,19.6,30.00,South,180,3.7,-999.0,49,-99.99,,,0.01,Acu-Link.com,2013-03-04 17:42:00,
2013-03-04 12:57:00,36.0,18.7,29.99,SW,225,2.2,-999.0,49,-99.99,,,0.01,Acu-Link.com,2013-03-04 17:57:00,
2013-03-04 13:12:00,38.7,19.7,29.99,South,180,0.0,-999.0,46,-99.99,,,0.01,Acu-Link.com,2013-03-04 18:12:00,
2013-03-04 13:27:00,39.0,19.5,29.98,WSW,247,0.0,-999.0,45,-99.99,,,0.02,Acu-Link.com,2013-03-04 18:27:00,
2013-03-04 13:42:00,38.7,19.7,29.98,SSW,202,3.7,-999.0,46,-99.99,,,0.03,Acu-Link.com,2013-03-04 18:42:00,
2013-03-04 13:58:00,39.4,20.9,29.97,SSE,157,1.1,-999.0,47,-99.99,,,0.03,Acu-Link.com,2013-03-04 18:58:00,
2013-03-04 14:13:00,41.4,20.6,29.97,SW,225,2.7,-999.0,43,-99.99,,,0.04,Acu-Link.com,2013-03-04 19:13:00,
2013-03-04 14:28:00,39.6,20.0,29.97,SW,225,3.2,-999.0,45,-99.99,,,0.05,Acu-Link.com,2013-03-04 19:28:00,
2013-03-04 14:43:00,43.0,20.9,29.97,SSE,157,3.7,-999.0,41,-99.99,,,0.07,Acu-Link.com,2013-03-04 19:43:00,
2013-03-04 14:58:00,44.8,20.8,29.96,SW,225,6.8,-999.0,38,-99.99,,,0.08,Acu-Link.com,2013-03-04 19:58:00,
2013-03-04 15:13:00,45.1,21.6,29.96,East,90,2.2,-999.0,39,-99.99,,,0.09,Acu-Link.com,2013-03-04 20:13:00,
2013-03-04 15:29:00,36.9,20.0,29.96,SW,225,2.2,-999.0,50,-99.99,,,0.10,Acu-Link.com,2013-03-04 20:29:00,
2013-03-04 15:44:00,36.1,19.7,29.96,SW,225,3.7,-999.0,51,-99.99,,,0.12,Acu-Link.com,2013-03-04 20:44:00,
2013-03-04 15:59:00,35.8,19.9,29.96,SW,225,0.0,-999.0,52,-99.99,,,0.13,Acu-Link.com,2013-03-04 20:59:00,
2013-03-04 16:14:00,36.3,19.9,29.96,SE,135,2.2,-999.0,51,-99.99,,,0.14,Acu-Link.com,2013-03-04 21:14:00,
2013-03-04 16:29:00,37.6,21.6,29.96,ESE,112,1.1,-999.0,52,-99.99,,,0.15,Acu-Link.com,2013-03-04 21:29:00,
2013-03-04 16:45:00,36.7,21.2,29.96,SSW,202,2.2,-999.0,53,-99.99,,,0.17,Acu-Link.com,2013-03-04 21:45:00,
2013-03-04 17:00:00,35.8,21.2,29.97,SSE,157,3.7,-999.0,55,-99.99,,,0.18,Acu-Link.com,2013-03-04 22:00:00,
2013-03-04 17:15:00,34.7,22.3,29.96,ESE,112,1.7,-999.0,60,-99.99,,,0.18,Acu-Link.com,2013-03-04 22:15:00,
2013-03-04 17:30:00,40.3,23.6,29.96,ESE,112,0.0,-999.0,51,-99.99,,,0.19,Acu-Link.com,2013-03-04 22:30:00,
2013-03-04 17:45:00,36.1,21.9,29.96,ESE,112,0.0,-999.0,56,-99.99,,,0.19,Acu-Link.com,2013-03-04 22:45:00,
2013-03-04 18:01:00,33.3,21.3,29.98,ESE,112,2.2,-999.0,61,-99.99,,,0.19,Acu-Link.com,2013-03-04 23:01:00,
2013-03-04 18:16:00,30.7,21.1,29.97,ESE,112,0.0,-999.0,67,-99.99,,,0.19,Acu-Link.com,2013-03-04 23:16:00,
2013-03-04 18:31:00,28.9,20.4,29.96,ESE,112,1.7,-999.0,70,-99.99,,,0.19,Acu-Link.com,2013-03-04 23:31:00,
2013-03-04 18:46:00,27.3,20.1,29.97,ESE,112,0.0,-999.0,74,-99.99,,,0.19,Acu-Link.com,2013-03-04 23:46:00,
2013-03-04 19:01:00,26.2,20.0,29.97,ESE,112,0.0,-999.0,77,-99.99,,,0.19,Acu-Link.com,2013-03-05 00:01:00,
2013-03-04 19:17:00,25.2,19.9,29.98,ESE,112,0.0,-999.0,80,-99.99,,,0.19,Acu-Link.com,2013-03-05 00:17:00,
2013-03-04 19:32:00,24.1,20.0,29.97,ESE,112,0.0,-999.0,84,-99.99,,,0.19,Acu-Link.com,2013-03-05 00:32:00,
2013-03-04 19:47:00,23.5,19.4,29.97,ESE,112,0.0,-999.0,84,-99.99,,,0.19,Acu-Link.com,2013-03-05 00:47:00,
2013-03-04 20:02:00,23.0,19.4,29.98,ESE,112,0.0,-999.0,86,-99.99,,,0.19,Acu-Link.com,2013-03-05 01:02:00,
2013-03-04 20:18:00,22.5,18.4,29.97,ESE,112,0.0,-999.0,84,-99.99,,,0.19,Acu-Link.com,2013-03-05 01:18:00,
2013-03-04 20:33:00,21.6,18.1,29.99,ESE,112,0.0,-999.0,86,-99.99,,,0.19,Acu-Link.com,2013-03-05 01:33:00,
2013-03-04 20:48:00,20.7,18.0,29.97,ESE,112,0.0,-999.0,89,-99.99,,,0.19,Acu-Link.com,2013-03-05 01:48:00,
2013-03-04 21:03:00,19.9,18.0,29.97,ESE,112,0.0,-999.0,92,-99.99,,,0.19,Acu-Link.com,2013-03-05 02:03:00,
2013-03-04 21:18:00,19.6,17.7,29.97,ESE,112,0.0,-999.0,92,-99.99,,,0.19,Acu-Link.com,2013-03-05 02:18:00,
2013-03-04 21:34:00,18.9,16.7,29.97,ESE,112,0.0,-999.0,91,-99.99,,,0.19,Acu-Link.com,2013-03-05 02:34:00,
2013-03-04 21:49:00,18.5,16.3,29.97,ESE,112,0.0,-999.0,91,-99.99,,,0.19,Acu-Link.com,2013-03-05 02:49:00,
2013-03-04 22:04:00,18.0,16.3,29.98,ESE,112,0.0,-999.0,93,-99.99,,,0.19,Acu-Link.com,2013-03-05 03:04:00,
2013-03-04 22:19:00,17.8,16.1,29.98,ESE,112,0.0,-999.0,93,-99.99,,,0.19,Acu-Link.com,2013-03-05 03:19:00,
2013-03-04 22:34:00,17.4,16.0,29.99,ESE,112,0.0,-999.0,94,-99.99,,,0.19,Acu-Link.com,2013-03-05 03:34:00,
2013-03-04 22:50:00,17.2,15.8,29.97,ESE,112,0.0,-999.0,94,-99.99,,,0.19,Acu-Link.com,2013-03-05 03:50:00,
2013-03-04 23:05:00,17.1,15.7,29.98,ESE,112,0.0,-999.0,94,-99.99,,,0.19,Acu-Link.com,2013-03-05 04:05:00,
2013-03-04 23:20:00,17.1,15.9,29.97,ESE,112,0.0,-999.0,95,-99.99,,,0.19,Acu-Link.com,2013-03-05 04:20:00,
2013-03-04 23:35:00,16.7,16.0,29.98,ESE,112,0.0,-999.0,97,-99.99,,,0.19,Acu-Link.com,2013-03-05 04:35:00,
2013-03-04 23:50:00,16.9,16.2,29.98,ESE,112,0.0,-999.0,97,-99.99,,,0.19,Acu-Link.com,2013-03-05 04:50:00,